Regional Weather Roundup
Issued by NWS

Home | Current Version | Previous Version | Graphics & Text | Print | Product List | Glossary On
Versions: 1 2 3 4 5 6 7 8 9 10 11 12 13 14 15 16 17 18 19 20 21 22 23 24 25 26 27 28 29 30 31 32 33 34 35 36 37 38 39 40 41 42 43 44 45 46 47 48 49 50
000
ASUS45 KCYS 190610
RWRWY

WYOMING REGIONAL WEATHER ROUNDUP
NATIONAL WEATHER SERVICE CHEYENNE WY
1100 PM MST WED JAN 18 2017

NOTE:  "FAIR" INDICATES FEW OR NO CLOUDS BELOW 12,000 FEET
WITH NO SIGNIFICANT WEATHER AND/OR OBSTRUCTIONS TO VISIBILITY.

WYZ001-190700-
YELLOWSTONE NATIONAL PARK

CITY           SKY/WX    TMP DP  RH WIND       PRES   REMARKS
LK YELLOWSTONE   N/A     11   9  92 CALM      29.81F
6HR MIN TEMP:   7; 6HR MAX TEMP:  17;

W YELLOWSTONE  NOT AVBL

$$
WYZ002>013-054>058-071-098>099-190700-
NORTHERN WYOMING

CITY           SKY/WX    TMP DP  RH WIND       PRES   REMARKS
JACKSON        MOCLDY     7   7 100 NW3       29.86S
CODY           FAIR      22  14  71 N6        29.65F WCI  14
GREYBULL       FAIR       8   4  83 SE3       29.71S
6HR MIN TEMP:   5; 6HR MAX TEMP:  15;

WORLAND        FAIR      18  14  84 SW8       29.68F WCI   8
6HR MIN TEMP:  13; 6HR MAX TEMP:  24;

SHERIDAN       FAIR      18  12  77 SE8       29.59F WCI   8
6HR MIN TEMP:  18; 6HR MAX TEMP:  28;

BUFFALO        FAIR      39  19  44 W10       29.62F WCI  32
6HR MIN TEMP:  37; 6HR MAX TEMP:  47;

GILLETTE       FAIR      31  21  66 SE9       29.61F WCI  23
6HR MIN TEMP:  28; 6HR MAX TEMP:  43;

HULETT         FAIR      32  21  64 S13       29.64S WCI  22
NEWCASTLE      FAIR      30  19  64 CALM      29.67F

$$
WYZ014>020-022>026-101>103-190700-
CENTRAL WYOMING

CITY           SKY/WX    TMP DP  RH WIND       PRES   REMARKS
BIG PINEY      FAIR      -7 -10  87 E9        29.87F WCI -24
6HR MIN TEMP:  -7; 6HR MAX TEMP:   3;

PINEDALE       FAIR      -8 -11  84 CALM      29.88F
DUBOIS         NOT AVBL
LANDER         FAIR      11   6  81 CALM      29.76S
6HR MIN TEMP:  11; 6HR MAX TEMP:  18;

RIVERTON       FAIR      10   5  80 W5        29.77S WCI   2
6HR MIN TEMP:   5; 6HR MAX TEMP:  15; 6HR PCP: TRACE;

CASPER         FAIR      32  18  56 SW22      29.71F WCI  19
6HR MIN TEMP:  31; 6HR MAX TEMP:  35;

DOUGLAS        FAIR      25  17  72 NW7       29.68S WCI  17
6HR MIN TEMP:  22; 6HR MAX TEMP:  41;


$$
WYZ021-027>030-104>119-190700-
SOUTHERN WYOMING

CITY           SKY/WX    TMP DP  RH WIND       PRES   REMARKS
EVANSTON       FAIR      22   8  55 S8        29.82F WCI  12
6HR MIN TEMP:  17; 6HR MAX TEMP:  26;

ROCK SPRINGS   FAIR       8   3  80 CALM      29.87S
6HR MIN TEMP:   4; 6HR MAX TEMP:  13;

RAWLINS        FAIR      28  16  60 VRB7G18   29.85F WCI  21
6HR MIN TEMP:  18; 6HR MAX TEMP:  29;

LARAMIE        FAIR      13  10  88 N7        29.79F WCI   3
6HR MIN TEMP:   9; 6HR MAX TEMP:  22;

CHEYENNE       FAIR      30  16  56 W10       29.68F WCI  21
6HR MIN TEMP:  26; 6HR MAX TEMP:  42;

TORRINGTON     FAIR      32  19  58 NW5       29.64F WCI  27
6HR MIN TEMP:  30; 6HR MAX TEMP:  45;


$$



USA.gov is the U.S. government's official web portal to all federal, state and local government web resources and services.